sat.trackr.live / text

‹ back to catalog

STARLINK-31625

NORAD 59458 · 2024-068D

PAYLOAD ACTIVE UNKNOWN

§ Identity

Operator
Country
US
Launch date
2024-04-10
Launch site
AFETR
Launch vehicle
Mass (kg)
RCS (m²)

Purposes: comms

External: N2YO · Heavens-Above · Gunter

§ Orbital elements

Epoch: 2026-05-25T04:53:14.762976Z

Period
94.27 min
Inclination
43.0027°
Eccentricity
0.0001030
Mean motion
15.27575579 rev/d
Perigee alt
482.4 km
Apogee alt
483.8 km
Semi-major
6,861.2 km
B*
1.1891e-5
RAAN
322.4862°
Arg perigee
278.0650°
Mean anomaly
82.0084°
Rev number
12,022

§ Raw data

STARLINK-316251 59458U 24068D   26145.20364309  .00000065  00000+0  11891-4 0  99902 59458  43.0027 322.4862 0001030 278.0650  82.0084 15.27575579120220

JSON: /api/v1/satellites/59458 · /tle

For live sub-satellite position, see the globe view (requires WebGL).

§ Visibility from observer

Set your observer location to see the next 7 days of passes ≥ 10°. The values pass through the URL so the page stays shareable.

No JS? Fill the form by hand. The geolocation button needs JavaScript.